Easton, MD

2:04 AM EDT on May 28, 2018 (GMT -0400)
Easton / Newnam

Weather History for KESN - September, 2012

Change the Weather History Date:

Saturday, September 22, 2012

  Actual Average Record
Temperature  
Mean Temperature 72 °F -  
Max Temperature 82 °F 78 °F 95 °F (1970)
Min Temperature 62 °F 55 °F 40 °F (1962)
Cooling Degree Days 7    
Growing Degree Days 22 (Base 50)    
Moisture  
Dew Point 65 °F    
Average Humidity 86    
Maximum Humidity 100    
Minimum Humidity 58    
Precipitation  
Precipitation 0.00 in - - ()
Sea Level Pressure  
Sea Level Pressure 29.95 in    
Wind  
Wind Speed 7 mph (South)    
Max Wind Speed 15 mph    
Max Gust Speed 23 mph    
Visibility 10 miles    
Events      
Averages and records for this station are not official NWS values.
T = Trace of Precipitation, MM = Missing Value Source: NWS Daily Summary

Daily Weather History Graph

Daily Weather History Graph

Search for Another Location

Airport or City:

Astronomy

Sep. 22, 2012 Rise Set
Actual Time 6:52 AM EDT 7:00 PM EDT
Civil Twilight 6:25 AM EDT 7:27 PM EDT
Nautical Twilight 5:54 AM EDT 7:58 PM EDT
Astronomical Twilight 5:23 AM EDT 8:29 PM EDT
Moon 2:04 PM EDT (9/22) No Moon Set
Length of Visible Light 13h 01m
Length of Day
12h 08m
Waxing Crescent, 48% of the Moon is Illuminated
Sep 22
Waxing Crescent
Sep 22
First Quarter
Sep 29
Full
Oct 8
Last Quarter
Oct 15
New

Hourly Weather History & Observations

Time (EDT) Temp. Heat Index Dew Point Humidity Pressure Visibility Wind Dir Wind Speed Gust Speed Precip Events Conditions
12:05 AM 62.6 °F - 62.6 °F 100% 30.02 in 10.0 mi SSE 5.8 mph - N/A   Clear
12:27 AM 62.6 °F - 62.6 °F 100% 30.02 in 10.0 mi SSE 5.8 mph - N/A   Clear
12:48 AM 62.6 °F - 62.6 °F 100% 30.02 in 10.0 mi South 5.8 mph - N/A   Clear
1:09 AM 63.0 °F - 63.0 °F 100% 30.02 in 10.0 mi South 6.9 mph - N/A   Clear
1:30 AM 63.0 °F - 63.0 °F 100% 30.02 in 10.0 mi South 5.8 mph - N/A   Clear
1:52 AM 63.0 °F - 63.0 °F 100% 30.01 in 10.0 mi South 5.8 mph - N/A   Clear
2:13 AM 63.0 °F - 63.0 °F 100% 30.00 in 10.0 mi South 6.9 mph - N/A   Clear
2:34 AM 63.0 °F - 63.0 °F 100% 29.99 in 10.0 mi SSE 6.9 mph - N/A   Clear
2:56 AM 63.0 °F - 63.0 °F 100% 29.99 in 10.0 mi South 5.8 mph - N/A   Clear
3:17 AM 62.6 °F - 62.6 °F 100% 29.98 in 10.0 mi South 4.6 mph - N/A   Clear
3:38 AM 62.6 °F - 62.6 °F 100% 29.98 in 10.0 mi South 4.6 mph - N/A   Clear
4:00 AM 62.8 °F - 62.8 °F 100% 29.98 in 10.0 mi South 5.8 mph - N/A   Clear
4:21 AM 64.2 °F - 64.2 °F 100% 29.98 in 10.0 mi South 8.1 mph - N/A   Clear
4:42 AM 64.4 °F - 64.4 °F 100% 29.98 in 10.0 mi South 6.9 mph - N/A   Clear
5:04 AM 63.9 °F - 63.9 °F 100% 29.97 in 10.0 mi South 6.9 mph - N/A   Clear
5:25 AM 63.7 °F - 63.7 °F 100% 29.98 in 10.0 mi South 5.8 mph - N/A   Clear
5:53 AM 64.4 °F - 64.4 °F 100% 29.98 in 10.0 mi South 6.9 mph - N/A   Clear
6:08 AM 63.7 °F - 63.7 °F 100% 29.98 in 10.0 mi South 5.8 mph - N/A   Clear
6:13 AM 63.5 °F - 63.5 °F 100% 29.98 in 10.0 mi South 6.9 mph - N/A   Clear
6:53 AM 64.4 °F - 64.4 °F 100% 29.97 in 10.0 mi South 6.9 mph - N/A   Clear
7:53 AM 66.2 °F - 66.2 °F 100% 29.97 in 10.0 mi South 6.9 mph - N/A   Clear
8:52 AM 71.6 °F - 66.2 °F 83% 29.95 in 10.0 mi South 8.1 mph - N/A   Clear
9:52 AM 75.2 °F - 66.2 °F 73% 29.94 in 10.0 mi SW 10.4 mph - N/A   Clear
10:54 AM 77.0 °F - 66.2 °F 69% 29.93 in 10.0 mi SW 15.0 mph 23.0 mph N/A   Clear
11:50 AM 78.8 °F - 66.2 °F 65% 29.91 in 10.0 mi SW 15.0 mph 23.0 mph N/A   Clear
12:52 PM 80.6 °F 82.7 °F 66.2 °F 61% 29.90 in 10.0 mi SSW 11.5 mph 20.7 mph N/A   Clear
1:50 PM 82.4 °F 84.6 °F 66.2 °F 58% 29.88 in 10.0 mi WSW 10.4 mph 16.1 mph N/A   Clear
2:54 PM 82.4 °F 84.6 °F 66.2 °F 58% 29.85 in 10.0 mi SSW 13.8 mph - N/A   Clear
3:54 PM 82.4 °F 84.6 °F 66.2 °F 58% 29.85 in 10.0 mi SW 12.7 mph 19.6 mph N/A   Clear
4:50 PM 82.4 °F 84.6 °F 66.2 °F 58% 29.85 in 10.0 mi SW 11.5 mph - N/A   Partly Cloudy
5:50 PM 82.4 °F 84.6 °F 66.2 °F 58% 29.85 in 10.0 mi SSW 9.2 mph - N/A   Clear
6:50 PM 77.0 °F - 68.0 °F 74% 29.85 in 10.0 mi SSW 9.2 mph - N/A   Clear
7:51 PM 75.2 °F - 68.0 °F 78% 29.86 in 10.0 mi SSW 8.1 mph - N/A   Clear
8:50 PM 73.4 °F - 68.0 °F 83% 29.87 in 10.0 mi SSW 8.1 mph - N/A   Scattered Clouds
10:25 PM 72.5 °F - 65.7 °F 79% 29.90 in 10.0 mi North 12.7 mph 17.3 mph N/A   Mostly Cloudy
10:47 PM 70.9 °F - 64.4 °F 80% 29.91 in 10.0 mi North 4.6 mph - N/A   Mostly Cloudy
11:08 PM 70.7 °F - 63.3 °F 77% 29.93 in 10.0 mi North 3.5 mph - N/A   Mostly Cloudy
11:29 PM 69.3 °F - 63.5 °F 82% 29.93 in 10.0 mi North 5.8 mph - N/A   Scattered Clouds
11:50 PM 70.3 °F - 60.4 °F 71% 29.95 in 10.0 mi NNW 8.1 mph - N/A   Scattered Clouds